�搅�E���B���j�^�v������
Date,Time,�搅(cps),���B(cps),���J
2023/09/10,00:00,7.0,5.2,��
2023/09/10,00:10,6.8,5.1,��
2023/09/10,00:20,6.8,5.2,��
2023/09/10,00:30,6.7,5.2,��
2023/09/10,00:40,6.9,5.2,��
2023/09/10,00:50,6.8,5.2,��
2023/09/10,01:00,6.8,5.1,��
2023/09/10,01:10,6.8,5.2,��
2023/09/10,01:20,6.9,5.2,��
2023/09/10,01:30,6.7,5.2,��
2023/09/10,01:40,6.8,5.2,��
2023/09/10,01:50,6.8,5.3,��
2023/09/10,02:00,7.0,5.2,��
2023/09/10,02:10,7.0,5.4,��
2023/09/10,02:20,6.9,5.3,��
2023/09/10,02:30,6.8,5.3,��
2023/09/10,02:40,6.8,5.3,��
2023/09/10,02:50,6.8,5.2,��
2023/09/10,03:00,7.0,5.1,��
2023/09/10,03:10,6.9,5.2,��
2023/09/10,03:20,6.8,5.1,��
2023/09/10,03:30,6.7,5.1,��
2023/09/10,03:40,6.7,5.1,��
2023/09/10,03:50,6.9,5.1,��
2023/09/10,04:00,7.0,5.0,��
2023/09/10,04:10,6.8,5.2,��
2023/09/10,04:20,6.9,5.2,��
2023/09/10,04:30,6.8,5.2,��
2023/09/10,04:40,6.8,5.1,��
2023/09/10,04:50,6.9,5.2,��
2023/09/10,05:00,6.8,5.0,��
2023/09/10,05:10,6.7,5.3,��
2023/09/10,05:20,6.9,5.1,��
2023/09/10,05:30,6.8,5.1,��
2023/09/10,05:40,6.9,5.1,��
2023/09/10,05:50,7.0,5.3,��
2023/09/10,06:00,6.9,5.2,��
2023/09/10,06:10,7.0,5.5,��
2023/09/10,06:20,6.9,5.2,��
2023/09/10,06:30,6.8,5.2,��
2023/09/10,06:40,7.0,5.3,��
2023/09/10,06:50,7.1,5.2,��
2023/09/10,07:00,7.1,5.1,��
2023/09/10,07:10,7.0,5.1,��
2023/09/10,07:20,7.0,5.3,��
2023/09/10,07:30,7.1,5.1,��
2023/09/10,07:40,6.9,5.2,��
2023/09/10,07:50,6.9,5.2,��
2023/09/10,08:00,6.9,5.3,��
2023/09/10,08:10,6.9,5.2,��
2023/09/10,08:20,7.0,5.2,��
2023/09/10,08:30,6.8,5.3,��
2023/09/10,08:40,6.9,5.2,��
2023/09/10,08:50,6.8,5.2,��
2023/09/10,09:00,6.7,5.1,��
2023/09/10,09:10,6.8,5.3,��
2023/09/10,09:20,6.8,5.2,��
2023/09/10,09:30,6.7,5.1,��
2023/09/10,09:40,6.9,5.2,��
2023/09/10,09:50,6.9,5.2,��
2023/09/10,10:00,6.7,5.3,��
2023/09/10,10:10,6.8,5.3,��
2023/09/10,10:20,6.9,5.1,��
2023/09/10,10:30,6.6,5.2,��
2023/09/10,10:40,6.7,5.3,��
2023/09/10,10:50,6.9,5.2,��
2023/09/10,11:00,6.7,5.1,��
2023/09/10,11:10,6.9,5.2,��
2023/09/10,11:20,6.6,5.1,��
2023/09/10,11:30,6.8,5.1,��
2023/09/10,11:40,6.6,5.2,��
2023/09/10,11:50,6.7,5.3,��
2023/09/10,12:00,6.7,5.3,��
2023/09/10,12:10,6.5,5.2,��
2023/09/10,12:20,6.5,5.2,��
2023/09/10,12:30,6.8,5.1,��
2023/09/10,12:40,6.8,5.0,��
2023/09/10,12:50,6.7,5.3,��
2023/09/10,13:00,6.7,5.2,��
2023/09/10,13:10,6.8,5.0,��
2023/09/10,13:20,6.8,5.1,��
2023/09/10,13:30,6.7,5.1,��
2023/09/10,13:40,6.5,5.2,��
2023/09/10,13:50,6.7,5.2,��
2023/09/10,14:00,6.6,5.2,��
2023/09/10,14:10,6.6,5.2,��
2023/09/10,14:20,6.7,5.3,��
2023/09/10,14:30,6.6,5.3,��
2023/09/10,14:40,6.6,5.3,��
2023/09/10,14:50,6.7,5.2,��
2023/09/10,15:00,6.5,5.2,��
2023/09/10,15:10,6.4,5.2,��
2023/09/10,15:20,6.6,5.2,��
2023/09/10,15:30,6.6,5.2,��
2023/09/10,15:40,6.7,5.2,��
2023/09/10,15:50,6.6,5.2,��
2023/09/10,16:00,6.5,5.2,��
2023/09/10,16:10,6.4,5.2,��
2023/09/10,16:20,6.5,5.2,��
2023/09/10,16:30,6.3,5.3,��
2023/09/10,16:40,6.6,5.3,��
2023/09/10,16:50,6.6,5.1,��
2023/09/10,17:00,6.7,5.1,��
2023/09/10,17:10,6.4,5.2,��
2023/09/10,17:20,6.7,5.2,��
2023/09/10,17:30,6.6,5.1,��
2023/09/10,17:40,6.6,5.3,��
2023/09/10,17:50,6.7,5.1,��
2023/09/10,18:00,6.7,5.1,��
2023/09/10,18:10,6.6,5.2,��
2023/09/10,18:20,6.7,5.1,��
2023/09/10,18:30,6.6,5.2,��
2023/09/10,18:40,6.5,5.1,��
2023/09/10,18:50,6.5,5.1,��
2023/09/10,19:00,6.5,5.0,��
2023/09/10,19:10,6.4,5.0,��
2023/09/10,19:20,6.7,5.2,��
2023/09/10,19:30,6.7,5.1,��
2023/09/10,19:40,6.5,5.1,��
2023/09/10,19:50,6.6,5.3,��
2023/09/10,20:00,6.8,5.1,��
2023/09/10,20:10,6.5,5.2,��
2023/09/10,20:20,6.7,5.2,��
2023/09/10,20:30,6.5,5.2,��
2023/09/10,20:40,6.6,5.1,��
2023/09/10,20:50,6.7,5.1,��
2023/09/10,21:00,6.6,5.1,��
2023/09/10,21:10,6.6,5.0,��
2023/09/10,21:20,6.7,5.0,��
2023/09/10,21:30,6.6,5.2,��
2023/09/10,21:40,6.7,5.2,��
2023/09/10,21:50,6.6,5.2,��
2023/09/10,22:00,6.6,5.1,��
2023/09/10,22:10,6.6,5.2,��
2023/09/10,22:20,6.7,5.4,��
2023/09/10,22:30,6.7,5.2,��
2023/09/10,22:40,6.6,5.1,��
2023/09/10,22:50,6.7,5.2,��
2023/09/10,23:00,6.5,5.0,��
2023/09/10,23:10,6.6,5.2,��
2023/09/10,23:20,6.7,5.2,��
2023/09/10,23:30,6.5,5.1,��
2023/09/10,23:40,6.4,5.2,��
2023/09/10,23:50,6.5,5.2,��
